Observations for Trim Patrick St
| Time | AQI | Temp °C | Hum % | Pres Pa | CO μg/m³ | H₂S μg/m³ | NO μg/m³ | NO₂ μg/m³ | O₃ μg/m³ | SO₂ μg/m³ | PM1 μg/m³ | PM2.5 μg/m³ | PM10 μg/m³ |
|---|---|---|---|---|---|---|---|---|---|---|---|---|---|
| Wednesday 26 August 2026 | |||||||||||||
| 13:49 | 2 | 22.9 | 72 | 38,460 | 0.1 | 0 | 3.82 | 14.79 | 33.63 | 4.42 | 14.86 | 19.32 | 21.25 |
| 13:48 | 2 | 22.8 | 72 | 38,460 | 0.12 | 0 | 3.98 | 14.11 | 30.23 | 3.71 | 12.29 | 19.34 | 21.28 |
| 13:47 | 2 | 22.8 | 72 | 38,460 | 0.12 | 0 | 3.78 | 29.25 | 37.45 | 4.9 | 12.29 | 17.88 | 19.67 |
| 13:46 | 2 | 22.7 | 73 | 38,460 | 0.09 | 0 | 3.57 | 13.61 | 32.71 | 3.66 | 13.14 | 17.13 | 18.85 |
| 13:45 | 2 | 22.7 | 73 | 38,460 | 0.1 | 0 | 3.49 | 16.19 | 36.22 | 2.38 | 13.14 | 19.25 | 21.17 |
| 13:44 | 2 | 22.6 | 72 | 38,460 | 0.1 | 0 | 3.35 | 9.19 | 36.76 | 3.3 | 13.14 | 19.34 | 21.28 |
| 13:42 | 2 | 22.5 | 73 | 38,460 | 0.09 | 0 | 3.35 | 12.9 | 39.1 | 3.12 | 15.71 | 20.68 | 22.75 |
| 13:41 | 2 | 22.4 | 72 | 38,460 | 0.1 | 0 | 3.58 | 12.42 | 36.13 | 3.2 | 12.29 | 17.89 | 19.68 |
| 13:40 | 2 | 22.4 | 73 | 38,460 | 0.07 | 0 | 3.4 | 8.41 | 37.74 | 2.3 | 13.14 | 19.28 | 21.21 |
| 13:39 | 2 | 22.3 | 74 | 38,460 | 0.08 | 0 | 3.46 | 8 | 41.59 | 2.66 | 13.14 | 20.56 | 22.61 |
| 13:38 | 2 | 22.2 | 73 | 38,460 | 0.09 | 0 | 2.92 | 11.06 | 40.48 | 2.8 | 14 | 18.52 | 20.38 |
| 13:37 | 2 | 22.2 | 73 | 38,460 | 0.11 | 0 | 3.01 | 13.45 | 29.33 | 2.53 | 14 | 19.94 | 21.94 |
| 13:36 | 2 | 22.1 | 74 | 38,460 | 0.12 | 0 | 3.34 | 16.08 | 30.85 | 2.73 | 14 | 19.17 | 21.09 |
| 13:34 | 2 | 22 | 74 | 38,460 | 0.12 | 0 | 4.31 | 25.36 | 34.02 | 2.45 | 11.43 | 17.72 | 19.49 |
| 13:33 | 2 | 22 | 74 | 38,460 | 0.15 | 0 | 5.5 | 81.37 | 22.26 | 0 | 16.57 | 21.26 | 23.38 |
| 13:32 | 2 | 22 | 76 | 38,460 | 0.18 | 0 | 5.16 | 26.86 | 32.02 | 4.48 | 16.57 | 21.1 | 23.21 |
| 13:30 | 2 | 21.9 | 76 | 38,460 | 0.1 | 0 | 2.75 | 13.96 | 32.55 | 2.01 | 13.14 | 18.26 | 20.08 |
| 13:29 | 2 | 21.9 | 74 | 38,460 | 0.11 | 0 | 2.8 | 19.04 | 29.75 | 1.07 | 14 | 18.39 | 20.23 |
| 13:28 | 2 | 21.8 | 77 | 38,460 | 0.14 | 0 | 2.07 | 56.28 | 21.73 | 0 | 14.86 | 20.22 | 22.24 |
| 13:26 | 2 | 21.7 | 75 | 38,460 | 0.19 | 0 | 2.68 | 11.75 | 32.54 | 1.59 | 14.86 | 21.16 | 23.27 |